Weather History for KPRB - April, 2013

Change the Weather History Date:

Saturday, April 20, 2013

  Actual Average Record
Temperature  
Mean Temperature 65 °F 58 °F  
Max Temperature 88 °F 74 °F 98 °F (2009)
Min Temperature 42 °F 42 °F 28 °F (1972)
Degree Days  
Heating Degree Days 0 8  
Month to date heating degree days 86 187  
Since 1 July heating degree days 2335 2646  
Cooling Degree Days 0 0  
Month to date cooling degree days 1 0  
Year to date cooling degree days 1 0  
Growing Degree Days 16 (Base 50)    
Moisture  
Dew Point 39 °F    
Average Humidity 43    
Maximum Humidity 70    
Minimum Humidity 16    
Precipitation  
Precipitation 0.00 in 0.02 in 0.95 in (1983)
Month to date precipitation 0.01 0.52  
Year to date precipitation 1.41 8.35  
Since 1 July precipitation 4.62  
Sea Level Pressure  
Sea Level Pressure 30.00 in    
Wind  
Wind Speed 6 mph (WNW)    
Max Wind Speed 17 mph    
Max Gust Speed 21 mph    
Visibility 10 miles    
Events      
T = Trace of Precipitation, MM = Missing Value Source: NWS Daily Summary

Daily Weather History Graph

Daily Weather History Graph

Search for Another Location

Airport or City:

Trip Planner

Search our weather history database for the weather conditions in past years. The results will help you decide how hot, cold, wet, or windy it might be!

Date:

Astronomy

Apr. 20, 2013 Rise Set
Actual Time 6:22 AM PDT 7:40 PM PDT
Civil Twilight 5:56 AM PDT 8:06 PM PDT
Nautical Twilight 5:24 AM PDT 8:38 PM PDT
Astronomical Twilight 4:51 AM PDT 9:11 PM PDT
Moon 2:39 PM PDT (4/20) 3:04 AM PDT (4/20)
Length of Visible Light 14h 10m
Length of Day
13h 17m
Waxing Gibbous, 72% of the Moon is Illuminated
Apr 20
Waxing Gibbous
Apr 25
Full
May 2
Last Quarter
May 9
New
May 17
First Quarter

Hourly Weather History & Observations

Time (PDT) Temp. Windchill Dew Point Humidity Pressure Visibility Wind Dir Wind Speed Gust Speed Precip Events Conditions
12:53 AM 60.1 °F - 39.0 °F 46% 30.06 in 10.0 mi NNW 3.5 mph - N/A   Clear
1:53 AM 57.0 °F - 39.0 °F 51% 30.05 in 10.0 mi Calm Calm - N/A   Clear
2:53 AM 48.9 °F - 36.0 °F 61% 30.04 in 10.0 mi Calm Calm - N/A   Clear
3:53 AM 46.0 °F 44.8 °F 36.0 °F 68% 30.05 in 10.0 mi East 3.5 mph - N/A   Clear
4:53 AM 46.9 °F - 35.1 °F 63% 30.04 in 10.0 mi Calm Calm - N/A   Clear
5:53 AM 45.0 °F - 35.1 °F 68% 30.04 in 10.0 mi Calm Calm - N/A   Clear
6:53 AM 45.0 °F - 35.1 °F 68% 30.05 in 10.0 mi Calm Calm - N/A   Clear
7:53 AM 52.0 °F - 41.0 °F 66% 30.06 in 10.0 mi NNW 5.8 mph - N/A   Clear
8:53 AM 59.0 °F - 44.1 °F 58% 30.04 in 10.0 mi NNW 8.1 mph - N/A   Clear
9:53 AM 64.9 °F - 44.1 °F 47% 30.03 in 10.0 mi NW 8.1 mph - N/A   Clear
10:53 AM 73.0 °F - 43.0 °F 34% 30.02 in 10.0 mi NW 9.2 mph - N/A   Clear
11:53 AM 77.0 °F - 41.0 °F 28% 30.00 in 10.0 mi Variable 4.6 mph - N/A   Clear
12:53 PM 81.0 °F - 39.0 °F 22% 29.98 in 10.0 mi Calm Calm - N/A   Clear
1:53 PM 82.9 °F - 37.9 °F 20% 29.96 in 10.0 mi WNW 8.1 mph - N/A   Clear
2:53 PM 86.0 °F - 37.0 °F 18% 29.94 in 10.0 mi NNW 8.1 mph - N/A   Clear
3:53 PM 86.0 °F - 36.0 °F 17% 29.92 in 10.0 mi West 8.1 mph - N/A   Clear
4:53 PM 86.0 °F - 37.0 °F 18% 29.91 in 10.0 mi SSE 4.6 mph - N/A   Clear
5:53 PM 86.0 °F - 39.0 °F 19% 29.90 in 10.0 mi SSW 5.8 mph - N/A   Clear
6:53 PM 81.0 °F - 39.9 °F 23% 29.92 in 10.0 mi SSW 9.2 mph - N/A   Clear
7:53 PM 73.9 °F - 37.9 °F 27% 29.94 in 10.0 mi West 5.8 mph - N/A   Clear
8:53 PM 68.0 °F - 39.0 °F 35% 29.97 in 10.0 mi WNW 12.7 mph - N/A   Clear
9:53 PM 64.0 °F - 39.0 °F 40% 30.00 in 10.0 mi WNW 15.0 mph - N/A   Clear
10:53 PM 61.0 °F - 37.9 °F 42% 30.00 in 10.0 mi NW 10.4 mph - N/A   Clear
11:53 PM 59.0 °F - 37.9 °F 46% 30.01 in 10.0 mi NW 6.9 mph - N/A   Clear